Погода в Селе Дормидонтовка

Россия / Хабаровский край     47°42′39″N   134°54′58″E
В апреле 2022 года жителям России запретили посещать сайт meteo.paraplan.net по решению Генеральной прокуратуры. Аудитория сайта уменьшилась в 10 раз. Владельцы сайта не видят смысла в поддержке погодного сервера в таких условиях. Сайт будет закрыт в октябре.
темп.,
°C
ветер,
м/с
пор.,
м/с
влажн.,
%
обл.,
%
осадки,
мм/ч
давл.,
гПа
погр.,
м
4 октября, вт
вт401:00+4зсз61083100 2.8 1013875
04:00+3з51179100 3.0 1014923
07:000з511824 0.0 1014376
10:00+2з810581 0.0 10141220
13:00+5зсз81045100 0.0 10131976
16:00+5зсз6945100 0.0 10122036
19:00+3з511575 0.1 1014444
22:00+1з513645 0.1 1014394
5 октября, ср
ср501:000з511700 0.0 1015304
04:00−1зюз410730 0.0 1016274
07:00−2юз49741 0.0 1017275
10:00+3з58480 0.0 1018768
13:00+6з8103868 0.0 10172236
16:00+6з6943100 0.0 10172158
19:00+2зюз3659100 0.1 1017104
22:00+2зюз51160100 0.1 1018333
6 октября, чт
чт601:000зюз410655 0.0 1018240
04:00−1зюз511695 0.0 1019291
07:00−1зюз512673 0.0 1020335
10:00+4зюз711510 0.0 1020880
13:00+7зсз812415 0.0 10201833
16:00+8з6104592 0.0 10202479
19:00+3юз45585 0.0 102064
22:00+3юз512595 0.0 1020233
7 октября, пт
пт701:00+1юз411635 0.0 1021219
04:000юз410670 0.0 1021195
07:00−1ююз36700 0.0 102297
10:00+5зюз58500 0.0 1022500
13:00+9зюз68410 0.0 10211239
16:00+10зюз57415 0.0 10201851
19:00+5юз33570 0.0 102233
22:00+3ююз35610 0.0 102379
8 октября, сб
сб801:00+2юз23655 0.0 102334
04:00+1ююз22685 0.0 102423
07:000ююз22715 0.0 102527
10:00+6юз355455 0.0 1026444
13:00+10зюз4547100 0.0 1025840
16:00+11з35445 0.0 10241401
19:00+7в115790 0.0 102510
22:00+5юв33685 0.0 102533